www.pogodaiklimat.ru
ПОГОДА в Муаратевехе
Время
(UTC), дата
09 29.05
12 29.05
15 29.05
00 30.05
03 30.05
06 30.05
09 30.05
12 30.05
15 30.05
00 31.05
03 31.05
06 31.05
09 31.05
12 31.05
15 31.05
00 1.06
03 1.06
06 1.06
09 1.06
12 1.06
15 1.06
00 2.06
03 2.06
06 2.06
09 2.06
12 2.06
15 2.06
00 3.06
03 3.06
06 3.06
09 3.06
12 3.06
15 3.06
00 4.06
03 4.06
06 4.06
09 4.06
12 4.06
15 4.06
00 5.06
03 5.06
Ветер
(напр.,м/с)
Видим. Явления Облачность Т
(С)
Тd
(С)
f
(%)
Тe
(С)
Тes
(С)
Комфортность P
(гПа)
Po
(гПа)
Тmin
(С)
Tmax
(С)
R
(мм)
R24
(мм)
S
(см)
С 3 10 км осадки на расстоянии 9/5 400 м
[Sc Ac As Ci sp]
+29.3 +25.0 78 +42 +43 опасность
перегрева
1010.1 1005.7
штиль 0 7000 м осадки на расстоянии 8/5 360 м
[Cb cap Ac As Ci sp]
+26.7 +24.9 90 +38 +38 очень
душно
1011.9 1007.6 +29.6
штиль 0 6000 м мгла 8/8 400 м
[Sc Ac As Ci sp]
+25.6 +24.6 94 +36 +36 очень
душно
1013.1 1008.8
штиль 0 6000 м в посл. час туман 5/5 330 м
[St Ac lent]
+24.8 +24.4 98 +35 +37 очень
душно
1012.9 1008.5 +23.7
СЗ 2 10 км 9/8 360 м
[Sc Ac trans Ci sp]
+30.1 +24.0 70 +42 +44 опасность
перегрева
1012.4 1008.0
СЗ 2 12 км 8/8 360 м
[Cu Sc Ac trans Ci sp]
+32.9 +24.5 61 +45 +49 опасность
перегрева
1010.1 1005.8
В 4 6000 м гроза без осадков 9/8
[Cb cap Ac As Ci sp]
+28.0 +24.2 80 +39 +39 очень
душно
1010.5 1006.2 0.2
штиль 0 6000 м зарница {гроза, дождь} 9/8
[Cb cap Ac As Ci sp]
+25.3 +24.2 94 +35 +35 очень
душно
1012.0 1007.7 +33.2 2
штиль 0 6000 м мгла 9/8 330 м
[Sc Ac As Ci sp]
+24.6 +23.8 95 +33 +33 очень
душно
1013.3 1008.9
штиль 0 10 км 3/1 240 м
[Sc Ac trans Ci fib]
+26.0 +23.9 88 +36 +39 очень
душно
1013.3 1008.9 +23.3 1
В 2 13 км 6/6 330 м
[Sc Ac trans Ci sp]
+30.4 +25.3 74 +44 +51 опасность
перегрева
1013.2 1008.9
В 2 13 км 8/8 450 м
[Cb cap]
+33.0 +26.0 67 +49 +52 опасность
перегрева
1010.0 1005.6
штиль 0 13 км 6/5 300 м
[Cb cap Ci sp]
+33.5 +25.5 63 +48 +50 опасность
перегрева
1007.7 1003.3
штиль 0 9000 м зарница 9/8 420 м
[Cb cap Ac trans Ci sp]
+30.0 +26.2 80 +45 +45 опасность
перегрева
1010.9 1006.6 +34.0
ЮЗ 2 4000 м гроза, ливневой дождь 10/8
[Cb cap Ac As]
+24.8 +23.8 94 +34 +34 очень
душно
1013.0 1008.6 30
ЮЗ 1 5000 м дымка 9/8 330 м
[St Ac As Ci fib]
+25.1 +24.1 94 +35 +35 очень
душно
1012.4 1008.0 +23.6 32
СВ 4 11 км 8/8 360 м
[Sc Ac trans Ci fib]
+29.7 +24.8 75 +42 +45 опасность
перегрева
1012.3 1008.0
штиль 0 12 км 9/9 400 м
[Sc Ac trans Ci sp]
+33.3 +25.4 63 +48 +50 опасность
перегрева
1009.6 1005.2
штиль 0 10 км 9/5 420 м
[Cb cap Ac lent Ci fib]
+31.0 +25.9 74 +46 +47 опасность
перегрева
1008.5 1004.2
штиль 0 7000 м в посл. час дождь 6/4 450 м
[Cb cap Ac trans Cs]
+28.0 +25.5 86 +41 +41 опасность
перегрева
1011.0 1006.7 +33.8 0.0
штиль 0 6000 м зарница 9/6 450 м
[Cb cap Ac trans Cs]
+26.6 +25.2 92 +38 +38 очень
душно
1012.9 1008.5
штиль 0 8000 м 5/3 360 м
[Sc Ac trans Ci sp]
+26.7 +24.3 87 +37 +40 очень
душно
1012.9 1008.5 +24.7 0.0
З 2 12 км 6/5 400 м
[Sc Ac trans Ci sp]
+29.5 +24.6 75 +42 +50 опасность
перегрева
1012.2 1007.8
штиль 0 12 км 8/8 400 м
[Cu Sc Ac trans Ci sp]
+32.1 +25.2 67 +46 +50 опасность
перегрева
1009.2 1004.9
Ю 1 7000 м 6/6 360 м
[Cb cap Ac trans Ci fib]
+31.8 +25.4 69 +46 +47 опасность
перегрева
1008.0 1003.6
штиль 0 6000 м зарница 9/8
[Cb cap Ac As Ci sp]
+28.9 +25.7 83 +43 +43 опасность
перегрева
1010.9 1006.6 +33.5
штиль 0 6000 м мгла {дождь} 9/6 360 м
[Sc Ac trans Ci sp]
+26.7 +25.2 91 +38 +38 очень
душно
1011.8 1007.5 0.0
штиль 0 7000 м 9/8 240 м
[Sc As trans Ci sp]
+25.8 +23.7 88 +35 +36 очень
душно
1012.7 1008.3 +25.0 0.0
СВ 2 10 км 9/8 400 м
[Sc As trans Ci sp]
+30.6 +25.0 72 +44 +46 опасность
перегрева
1012.6 1008.3
В 1 12 км 9/6 420 м
[Sc Ac trans Ci sp]
+33.2 +25.2 63 +47 +52 опасность
перегрева
1008.8 1004.5
штиль 0 12 км 6/5 450 м
[Sc Ac trans Ci sp]
+32.7 +24.8 63 +46 +47 опасность
перегрева
1007.6 1003.3
штиль 0 6000 м зарница {гроза, дождь} 8/8 300 м
[Cb cap As op]
+27.8 +25.8 89 +41 +41 опасность
перегрева
1009.6 1005.3 +33.8 2
штиль 0 5000 м мгла {дождь} 9/8 330 м
[Sc Ac As Cs]
+26.2 +25.0 93 +37 +37 очень
душно
1012.2 1007.9 0.9
штиль 0 6000 м мгла 4/3 330 м
[Sc Ac trans Ci sp]
+25.8 +24.1 90 +36 +38 очень
душно
1012.1 1007.8 +24.2 2
С 4 12 км 6/6 400 м
[Sc]
+30.6 +24.9 72 +44 +48 опасность
перегрева
1011.7 1007.4
В 2 13 км 8/8 480 м
[Cu Sc]
+32.6 +25.0 64 +46 +49 опасность
перегрева
1008.7 1004.4
В 2 12 км 6/5 480 м
[Cb cap Ac trans Ci sp]
+33.6 +24.8 60 +47 +48 опасность
перегрева
1007.1 1002.8
штиль 0 7000 м зарница 9/5 420 м
[Cb cap Ac As Ci sp]
+28.2 +25.4 85 +41 +41 опасность
перегрева
1009.3 1005.0 +34.0
штиль 0 5000 м зарница 5/3 450 м
[Cb cap Ac trans Ci sp]
+26.4 +25.2 93 +38 +38 очень
душно
1011.0 1006.6
штиль 0 7000 м мгла 8/6 330 м
[Sc Ac trans Cs]
+26.8 +24.4 87 +38 +39 очень
душно
1011.4 1007.1 +24.5
СВ 3 9000 м 6/5 360 м
[Sc Ac trans Ci sp]
+30.9 +24.3 68 +43 +50 опасность
перегрева
1011.2 1006.9
Местоположение метеостанции Муаратевех (Индонезия): широта -0.95 долгота 114.90 высота над уровнем моря 60 м.
В архиве по умолчанию представлена погода в Муаратевехе за последнюю неделю. Архивные данные за месяц целиком и за предыдущие месяцы, начиная с января 2011 года, Вы можете получить, выбрав интересующий диапазон дат из раскрывающегося списка и нажав кнопку "Найти!".
*Определитесь, кто Вы:
Внимание! Время в таблицах - всемирное. Для получения местного времени необходимо прибавить поправку, которая равна 7 ч.
Смотрите также архив погоды в соседних городах и на ближайших метеорологических станциях:
Партнеры нашего сайта:      
Пояснения к столбцам:
  • Ветер - указаны скорость ветра в м/с - средняя за 10 мин, порывы в срок и между сроками (в фигурных скобках) и направление, откуда дует ветер: С - северный,
  • СВ - северо-восточный, В - восточный, ЮВ - юго-восточный, Ю - южный, ЮЗ - юго-западный, З - западный, СЗ - северо-западный.
  • Видимость - горизонтальная дальность видимости в метрах или километрах. При видимости от 1 до 10 км при отсутствии осадков обычно наблюдается дымка, при ухудшении видимости до 1 км и менее - туман. В сухую погоду видимость может ухудшаться дымом, пылью или мглою.
  • Явления - указаны атмосферные явления, наблюдавшиеся в срок или в последний час перед сроком; фигурными скобками обозначены явления, наблюдавшиеся между сроками (за 1-3 часа до срока); квадратными скобками обозначены град или гололедные отложения с указанием их диаметра в мм.
  • Облачность - указаны через наклонную черту общая и нижняя облачность в баллах и высота нижней границы облаков в метрах; квадратными скобками обозначены формы облаков: Ci - перистые, Cs - перисто-слоистые, Cc - перисто-кучевые, Ac - высококучевые, As - высокослоистые, Sc - слоисто-кучевые, Ns - слоисто-дождевые, Cu - кучевые, Cb - кучево-дождевые. Подробнее классификацию облаков см. в Атласе облаков (PDF).
  • T - Температура воздуха - температура, измеренная на высоте 2 м над землей.
  • Td - Температура точки росы - температура, при понижении до которой содержащийся в воздухе водяной пар достигнет насыщения.
  • f - Относительная влажность воздуха - влажноcть воздуха, измеренная на высоте 2 м над землей.
  • Te - Эффективная температура - температура, которую ощущает одетый по сезону человек в тени. Характеристика душности погоды. При расчете учитывается влияние влажности воздуха и скорости ветра на теплоощущения человека.
  • Tes - Эффективная температура на солнце - температура, которую ощущает человек, с поправкой на солнечный нагрев. Характеристика знойности погоды. Зависит от высоты солнца над горизонтом, облачности и скорости ветра. Ночью, в пасмурную погоду, а также при ветре 12 м/с и более поправка равна нулю.
  • P - Атмосферное давление - приведенное к уровню моря атмосферное давление.
  • Po - Атмосферное давление - измеренное на уровне метеостанции атмосферное давление.
  • Tmin - Минимальная температура - минимум температуры воздуха на высоте 2 м над землей.
  • Tmax - Максимальная температура - максимум температуры воздуха на высоте 2 м над землей.
  • R - Количество осадков - Количество выпавших осадков за период времени, мм. При наведении курсора мыши на число - период времени, за который выпало указанное количество осадков.
  • R24 - Количество осадков - Количество выпавших осадков за 24 часа, мм.
  • S - Снежный покров - Высота снежного покрова, см. При наведении курсора мыши на число - состояние снежного покрова и степень покрытия местности в баллах.